Year,Month,Day,Hour,Minute,Value (Times are PST for temperature in C)
2012,08,18,11,12,23.90
2012,08,18,11,13,23.80
2012,08,18,11,14,23.80
2012,08,18,11,15,23.90
2012,08,18,11,16,23.90
2012,08,18,11,17,23.90
2012,08,18,11,18,23.90
2012,08,18,11,19,24.00
2012,08,18,11,20,24.10
2012,08,18,11,21,24.10
2012,08,18,11,22,24.10
2012,08,18,11,23,24.10
2012,08,18,11,24,24.10
2012,08,18,11,25,24.10
2012,08,18,11,26,24.10
2012,08,18,11,27,24.10
2012,08,18,11,28,24.10
2012,08,18,11,29,24.10
2012,08,18,11,30,24.20
2012,08,18,11,31,24.20
2012,08,18,11,32,24.30
2012,08,18,11,33,24.30
2012,08,18,11,34,24.30
2012,08,18,11,35,24.30
2012,08,18,11,36,24.30
2012,08,18,11,37,24.40
2012,08,18,11,38,24.40
2012,08,18,11,39,24.40
2012,08,18,11,40,24.40
2012,08,18,11,41,24.40
2012,08,18,11,42,24.40
2012,08,18,11,43,24.40
2012,08,18,11,44,24.50
2012,08,18,11,45,24.50
2012,08,18,11,46,24.60
2012,08,18,11,47,24.60
2012,08,18,11,48,24.60
2012,08,18,11,49,24.50
2012,08,18,11,50,24.40
2012,08,18,11,51,24.30
2012,08,18,11,52,24.20
2012,08,18,11,53,24.20
2012,08,18,11,54,24.20
2012,08,18,11,55,24.20
2012,08,18,11,56,24.20
2012,08,18,11,57,24.20
2012,08,18,11,58,24.20
2012,08,18,11,59,24.20
2012,08,18,12,00,24.10
2012,08,18,12,01,24.10
2012,08,18,12,02,24.00
2012,08,18,12,03,24.00
2012,08,18,12,04,24.00
2012,08,18,12,05,24.00
2012,08,18,12,06,24.00
2012,08,18,12,07,24.00
2012,08,18,12,08,24.00
2012,08,18,12,09,24.00
2012,08,18,12,10,24.10
2012,08,18,12,11,24.10
2012,08,18,12,12,24.10
2012,08,18,12,13,24.10
2012,08,18,12,14,24.10
2012,08,18,12,15,24.20
2012,08,18,12,16,24.20
2012,08,18,12,17,24.20
2012,08,18,12,18,24.20
2012,08,18,12,19,24.20
2012,08,18,12,20,24.20
2012,08,18,12,21,24.20
2012,08,18,12,22,24.30
2012,08,18,12,23,24.20
2012,08,18,12,24,24.20
2012,08,18,12,25,24.20
2012,08,18,12,26,24.20
2012,08,18,12,27,24.20
2012,08,18,12,28,24.20
2012,08,18,12,29,24.10
2012,08,18,12,30,24.10
2012,08,18,12,31,24.00
2012,08,18,12,32,23.90
2012,08,18,12,33,23.90
2012,08,18,12,34,23.80
2012,08,18,12,35,23.80
2012,08,18,12,36,23.70
2012,08,18,12,37,23.60
2012,08,18,12,38,23.60
2012,08,18,12,39,23.60
2012,08,18,12,40,23.50
2012,08,18,12,41,23.50
2012,08,18,12,42,23.40
2012,08,18,12,43,23.40
2012,08,18,12,44,23.30
2012,08,18,12,45,23.20
2012,08,18,12,46,23.20
2012,08,18,12,47,23.10
2012,08,18,12,48,23.00
2012,08,18,12,49,23.00
2012,08,18,12,50,22.90
2012,08,18,12,51,22.90
2012,08,18,12,52,22.90
2012,08,18,12,53,22.90
2012,08,18,12,54,22.90
2012,08,18,12,55,22.90
2012,08,18,12,56,22.90
2012,08,18,12,57,22.90
2012,08,18,12,58,22.90
2012,08,18,12,59,22.90
2012,08,18,13,00,22.90
2012,08,18,13,01,22.90
2012,08,18,13,02,22.90
2012,08,18,13,03,22.90
2012,08,18,13,04,22.90
2012,08,18,13,05,23.00
2012,08,18,13,06,23.00
2012,08,18,13,07,23.10
2012,08,18,13,08,23.20
2012,08,18,13,09,23.30
2012,08,18,13,10,23.30
2012,08,18,13,11,23.40
2012,08,18,13,12,23.50
2012,08,18,13,13,23.60
2012,08,18,13,14,23.70
2012,08,18,13,15,23.70
2012,08,18,13,16,23.80
2012,08,18,13,17,23.80
2012,08,18,13,18,23.80
2012,08,18,13,19,23.80
2012,08,18,13,20,23.80
2012,08,18,13,21,23.80
2012,08,18,13,22,23.80
2012,08,18,13,23,23.70
2012,08,18,13,24,23.70
2012,08,18,13,25,23.70
2012,08,18,13,26,23.60
2012,08,18,13,27,23.60
2012,08,18,13,28,23.60
2012,08,18,13,29,23.50
2012,08,18,13,30,23.40
2012,08,18,13,31,23.40
2012,08,18,13,32,23.40
2012,08,18,13,33,23.40
2012,08,18,13,34,23.30
2012,08,18,13,35,23.10
2012,08,18,13,36,23.00
2012,08,18,13,37,22.90
2012,08,18,13,38,22.80
2012,08,18,13,39,22.70
2012,08,18,13,40,22.60
2012,08,18,13,41,22.50
2012,08,18,13,42,22.50
2012,08,18,13,43,22.40
2012,08,18,13,44,22.30
2012,08,18,13,45,22.30
2012,08,18,13,46,22.30
2012,08,18,13,47,22.20
2012,08,18,13,48,22.20
2012,08,18,13,49,22.20
2012,08,18,13,50,22.10
2012,08,18,13,51,22.00
2012,08,18,13,52,22.00
2012,08,18,13,53,21.90
2012,08,18,13,54,21.80
2012,08,18,13,55,21.80
2012,08,18,13,56,21.70
2012,08,18,13,57,21.60
2012,08,18,13,58,21.60
2012,08,18,13,59,21.50
2012,08,18,14,00,21.50
2012,08,18,14,01,21.50
2012,08,18,14,02,21.50
2012,08,18,14,03,21.50
2012,08,18,14,04,21.50
2012,08,18,14,05,21.60
2012,08,18,14,06,21.60
2012,08,18,14,07,21.60
2012,08,18,14,08,21.60
2012,08,18,14,09,21.60
2012,08,18,14,10,21.60
2012,08,18,14,11,21.60
2012,08,18,14,12,21.60
2012,08,18,14,13,21.60
2012,08,18,14,14,21.50
2012,08,18,14,15,21.50
2012,08,18,14,16,21.50
2012,08,18,14,17,21.50
2012,08,18,14,18,21.50
2012,08,18,14,19,21.50
2012,08,18,14,20,21.50
2012,08,18,14,21,21.50
2012,08,18,14,22,21.60
2012,08,18,14,23,21.60
2012,08,18,14,24,21.60
2012,08,18,14,25,21.70
2012,08,18,14,26,21.70
2012,08,18,14,27,21.80
2012,08,18,14,28,21.80
2012,08,18,14,29,21.80
2012,08,18,14,30,21.80
2012,08,18,14,31,21.90
2012,08,18,14,32,21.90
2012,08,18,14,33,21.90
2012,08,18,14,34,21.90
2012,08,18,14,35,21.90
2012,08,18,14,36,21.90
2012,08,18,14,37,21.90
2012,08,18,14,38,21.80
2012,08,18,14,39,21.80
2012,08,18,14,40,21.80
2012,08,18,14,41,21.80
2012,08,18,14,42,21.80
2012,08,18,14,43,21.80
2012,08,18,14,44,21.80
2012,08,18,14,45,21.90
2012,08,18,14,46,21.90
2012,08,18,14,47,22.00
2012,08,18,14,48,22.00
2012,08,18,14,49,22.00
2012,08,18,14,50,22.10
2012,08,18,14,51,22.10
2012,08,18,14,52,22.10
2012,08,18,14,53,22.10
2012,08,18,14,54,22.10
2012,08,18,14,55,22.20
2012,08,18,14,56,22.20
2012,08,18,14,57,22.20
2012,08,18,14,58,22.20
2012,08,18,14,59,22.20
2012,08,18,15,00,22.20
2012,08,18,15,01,22.20
2012,08,18,15,02,22.10
2012,08,18,15,03,22.10
2012,08,18,15,04,22.00
2012,08,18,15,05,22.00
2012,08,18,15,06,22.00
2012,08,18,15,07,21.90
2012,08,18,15,08,21.90
2012,08,18,15,09,21.80
2012,08,18,15,10,21.80
2012,08,18,15,11,21.80
2012,08,18,15,12,21.80
2012,08,18,15,13,21.80
2012,08,18,15,14,21.80
2012,08,18,15,15,21.80
2012,08,18,15,16,21.90
2012,08,18,15,17,21.90
2012,08,18,15,18,21.90
2012,08,18,15,19,21.90
2012,08,18,15,20,22.00
2012,08,18,15,21,22.00
2012,08,18,15,22,22.00
2012,08,18,15,23,22.10
2012,08,18,15,24,22.10
2012,08,18,15,25,22.10
2012,08,18,15,26,22.00
2012,08,18,15,27,22.00
2012,08,18,15,28,22.00
2012,08,18,15,29,22.00
2012,08,18,15,30,21.90
2012,08,18,15,31,21.90
2012,08,18,15,32,21.90
2012,08,18,15,33,21.90
2012,08,18,15,34,21.90
2012,08,18,15,35,22.00
2012,08,18,15,36,22.00
2012,08,18,15,37,22.00
2012,08,18,15,38,21.90
2012,08,18,15,39,21.90
2012,08,18,15,40,21.90
2012,08,18,15,41,21.90
2012,08,18,15,42,21.90
2012,08,18,15,43,21.80
2012,08,18,15,44,21.80
2012,08,18,15,45,21.80
2012,08,18,15,46,21.70
2012,08,18,15,47,21.60
2012,08,18,15,48,21.50
2012,08,18,15,49,21.40
2012,08,18,15,50,21.30
2012,08,18,15,51,21.30
2012,08,18,15,52,21.20
2012,08,18,15,53,21.20
2012,08,18,15,54,21.10
2012,08,18,15,55,21.10
2012,08,18,15,56,21.10
2012,08,18,15,57,21.00
2012,08,18,15,58,20.90
2012,08,18,15,59,20.90
2012,08,18,16,00,20.90
2012,08,18,16,01,20.80
2012,08,18,16,02,20.80
2012,08,18,16,03,20.80
2012,08,18,16,04,20.80
2012,08,18,16,05,20.70
2012,08,18,16,06,20.70
2012,08,18,16,07,20.70
2012,08,18,16,08,20.70
2012,08,18,16,09,20.60
2012,08,18,16,10,20.50
2012,08,18,16,11,20.50
2012,08,18,16,12,20.50
2012,08,18,16,13,20.40
2012,08,18,16,14,20.40
2012,08,18,16,15,20.40
2012,08,18,16,16,20.40
2012,08,18,16,17,20.40
2012,08,18,16,18,20.40
2012,08,18,16,19,20.40
2012,08,18,16,20,20.30
2012,08,18,16,21,20.30
2012,08,18,16,22,20.30
2012,08,18,16,23,20.20
2012,08,18,16,24,20.20
2012,08,18,16,25,20.20
2012,08,18,16,26,20.20
2012,08,18,16,27,20.20
2012,08,18,16,28,20.20
2012,08,18,16,29,20.20
2012,08,18,16,30,20.20
2012,08,18,16,31,20.20
2012,08,18,16,32,20.20
2012,08,18,16,33,20.20
2012,08,18,16,34,20.20
2012,08,18,16,35,20.20
2012,08,18,16,36,20.10
2012,08,18,16,37,20.10
2012,08,18,16,38,20.00
2012,08,18,16,39,20.00
2012,08,18,16,40,19.90
2012,08,18,16,41,19.80
2012,08,18,16,42,19.80
2012,08,18,16,43,19.70
2012,08,18,16,44,19.70
2012,08,18,16,45,19.70
2012,08,18,16,46,19.70
2012,08,18,16,47,19.60
2012,08,18,16,48,19.60
2012,08,18,16,49,19.60
2012,08,18,16,50,19.60
2012,08,18,16,51,19.60
2012,08,18,16,52,19.60
2012,08,18,16,53,19.60
2012,08,18,16,54,19.60
2012,08,18,16,55,19.50
2012,08,18,16,56,19.50
2012,08,18,16,57,19.50
2012,08,18,16,58,19.50
2012,08,18,16,59,19.50
2012,08,18,17,00,19.50
2012,08,18,17,01,19.50
2012,08,18,17,02,19.50
2012,08,18,17,03,19.60
2012,08,18,17,04,19.60
2012,08,18,17,05,19.60
2012,08,18,17,06,19.60
2012,08,18,17,07,19.60
2012,08,18,17,08,19.60
2012,08,18,17,09,19.60
2012,08,18,17,10,19.60
2012,08,18,17,11,19.60
2012,08,18,17,12,19.60
2012,08,18,17,13,19.60
2012,08,18,17,14,19.70
2012,08,18,17,15,19.70
2012,08,18,17,16,19.70
2012,08,18,17,17,19.70
2012,08,18,17,18,19.70
2012,08,18,17,19,19.70
2012,08,18,17,20,19.70
2012,08,18,17,21,19.70
2012,08,18,17,22,19.80
2012,08,18,17,23,19.80
2012,08,18,17,24,19.80
2012,08,18,17,25,19.70
2012,08,18,17,26,19.70
2012,08,18,17,27,19.70
2012,08,18,17,28,19.70
2012,08,18,17,29,19.70
2012,08,18,17,30,19.60
2012,08,18,17,31,19.60
2012,08,18,17,32,19.60
2012,08,18,17,33,19.60
2012,08,18,17,34,19.50
2012,08,18,17,35,19.50
2012,08,18,17,36,19.40
2012,08,18,17,37,19.30
2012,08,18,17,38,19.30
2012,08,18,17,39,19.30
2012,08,18,17,40,19.30
2012,08,18,17,41,19.20
2012,08,18,17,42,19.20
2012,08,18,17,43,19.20
2012,08,18,17,44,19.10
2012,08,18,17,45,19.10
2012,08,18,17,46,19.00
2012,08,18,17,47,18.90
2012,08,18,17,48,18.80
2012,08,18,17,49,18.80
2012,08,18,17,50,18.80
2012,08,18,17,51,18.70
2012,08,18,17,52,18.70
2012,08,18,17,53,18.70
2012,08,18,17,54,18.60
2012,08,18,17,55,18.60
2012,08,18,17,56,18.60
2012,08,18,17,57,18.60
2012,08,18,17,58,18.60
2012,08,18,17,59,18.60
2012,08,18,18,00,18.60
2012,08,18,18,01,18.60
2012,08,18,18,02,18.60
2012,08,18,18,03,18.60
2012,08,18,18,04,18.60
2012,08,18,18,05,18.60
2012,08,18,18,06,18.60
2012,08,18,18,07,18.60
2012,08,18,18,08,18.60
2012,08,18,18,09,18.50
2012,08,18,18,10,18.50
2012,08,18,18,11,18.50
2012,08,18,18,12,18.50
2012,08,18,18,13,18.50
2012,08,18,18,14,18.40
2012,08,18,18,15,18.40
2012,08,18,18,16,18.40
2012,08,18,18,17,18.40
2012,08,18,18,18,18.40
2012,08,18,18,19,18.40
2012,08,18,18,20,18.40
2012,08,18,18,21,18.40
2012,08,18,18,22,18.40
2012,08,18,18,23,18.40
2012,08,18,18,24,18.40
2012,08,18,18,25,18.40
2012,08,18,18,26,18.40
2012,08,18,18,27,18.40
2012,08,18,18,28,18.40
2012,08,18,18,29,18.40
2012,08,18,18,30,18.40
2012,08,18,18,31,18.50
2012,08,18,18,32,18.50
2012,08,18,18,33,18.50
2012,08,18,18,34,18.60
2012,08,18,18,35,18.60
2012,08,18,18,36,18.60
2012,08,18,18,37,18.60
2012,08,18,18,38,18.70
2012,08,18,18,39,18.70
2012,08,18,18,40,18.70
2012,08,18,18,41,18.70
2012,08,18,18,42,18.70
2012,08,18,18,43,18.70
2012,08,18,18,44,18.70
2012,08,18,18,45,18.70
2012,08,18,18,46,18.70
2012,08,18,18,47,18.70
2012,08,18,18,48,18.70
2012,08,18,18,49,18.70
2012,08,18,18,50,18.70
2012,08,18,18,51,18.70
2012,08,18,18,52,18.80
2012,08,18,18,53,18.80
2012,08,18,18,54,18.80
2012,08,18,18,55,18.80
2012,08,18,18,56,18.80
2012,08,18,18,57,18.80
2012,08,18,18,58,18.80
2012,08,18,18,59,18.80
2012,08,18,19,00,18.80
2012,08,18,19,01,18.80
2012,08,18,19,02,18.80
2012,08,18,19,03,18.80
2012,08,18,19,04,18.80
2012,08,18,19,05,18.80
2012,08,18,19,06,18.80
2012,08,18,19,07,18.70
2012,08,18,19,08,18.70
2012,08,18,19,09,18.70
2012,08,18,19,10,18.60
2012,08,18,19,11,18.60
2012,08,18,19,12,18.60
2012,08,18,19,13,18.60
2012,08,18,19,14,18.60
2012,08,18,19,15,18.60
2012,08,18,19,16,18.50
2012,08,18,19,17,18.50
2012,08,18,19,18,18.50
2012,08,18,19,19,18.40
2012,08,18,19,20,18.40
2012,08,18,19,21,18.40
2012,08,18,19,22,18.30
2012,08,18,19,23,18.30
2012,08,18,19,24,18.30
2012,08,18,19,25,18.20
2012,08,18,19,26,18.20
2012,08,18,19,27,18.20
2012,08,18,19,28,18.20
2012,08,18,19,29,18.20
2012,08,18,19,30,18.20
2012,08,18,19,31,18.20
2012,08,18,19,32,18.10
2012,08,18,19,33,18.10
2012,08,18,19,34,18.10
2012,08,18,19,35,18.10
2012,08,18,19,36,18.10
2012,08,18,19,37,18.10
2012,08,18,19,38,18.10
2012,08,18,19,39,18.00
2012,08,18,19,40,18.00
2012,08,18,19,41,18.00
2012,08,18,19,42,18.00
2012,08,18,19,43,18.00
2012,08,18,19,44,18.00
2012,08,18,19,45,18.10
2012,08,18,19,46,18.10
2012,08,18,19,47,18.10
2012,08,18,19,48,18.10
2012,08,18,19,49,18.10
2012,08,18,19,50,18.10
2012,08,18,19,51,18.10
2012,08,18,19,52,18.10
2012,08,18,19,53,18.10
2012,08,18,19,54,18.10
2012,08,18,19,55,18.10
2012,08,18,19,56,18.10
2012,08,18,19,57,18.10
2012,08,18,19,58,18.10
2012,08,18,19,59,18.10
2012,08,18,20,00,18.10
2012,08,18,20,01,18.10
2012,08,18,20,02,18.10
2012,08,18,20,03,18.10
2012,08,18,20,04,18.10
2012,08,18,20,05,18.10
2012,08,18,20,06,18.10
2012,08,18,20,07,18.10
